Regional Weather Roundup
Issued by NWS Northern Indiana

Home | Current Version | Previous Version | Text Only | Print | Product List | Glossary On
Versions: 1 2 3 4 5 6 7 8 9 10 11 12 13 14 15 16 17 18 19 20 21 22 23 24 25 26 27 28 29 30 31 32 33 34 35 36 37 38 39 40 41 42 43 44 45 46 47 48 49 50
000
ASUS43 KIWX 211210
RWRIWX

KIWX WEATHER ROUNDUP
NATIONAL WEATHER SERVICE NORTHERN INDIANA
800 AM EDT MON AUG 21 2017

NOTE: "FAIR" INDICATES FEW OR NO CLOUDS BELOW 12,000 FEET WITH NO
SIGNIFICANT WEATHER AND/OR OBSTRUCTIONS TO VISIBILITY.

* THESE STATIONS ARE NOT UNDER NWS QUALITY CONTROL. THEY ALSO MAY NOT
  REPORT WEATHER SUCH AS PRECIPITATION OR FOG.

INZ001>027-211300-
NORTHERN INDIANA

CITY           SKY/WX    TMP DP  RH WIND       PRES   REMARKS
GARY*          MOCLDY    73  70  88 CALM      30.06R
VALPARAISO     PTCLDY    71  68  90 S8        30.08S
6HR MIN TEMP:  70; 6HR MAX TEMP:  76; 6HR PCP: TRACE;

MICHIGAN CITY* CLOUDY    72  64  78 S6        30.07F
LAPORTE*       CLOUDY    69  67  92 S3        30.09S
6HR MIN TEMP:  67; 6HR MAX TEMP:  73;

KNOX*          CLOUDY    70  68  94 CALM      30.09R
SOUTH BEND     MOSUNNY   71  69  93 S6        30.09R
6HR MIN TEMP:  70; 6HR MAX TEMP:  75; 6HR PCP: TRACE;

ELKHART*       MOSUNNY   72  66  83 CALM      30.09R
MONTICELLO*    CLOUDY    68  67  96 SE5       30.09S
6HR MIN TEMP:  68; 6HR MAX TEMP:  74; 6HR PCP:  0.14;

LOGANSPORT*    CLOUDY    66  64  94 SE6       30.11S
ROCHESTER*     MOSUNNY   72  72 100 E3        30.11R
WARSAW*        CLOUDY    68  68 100 CALM      30.11S FOG
AUBURN*        PTSUNNY   72  66  83 CALM      30.12S
FORT WAYNE     CLOUDY    73  66  78 CALM      30.12R
6HR MIN TEMP:  68; 6HR MAX TEMP:  73; 6HR PCP: TRACE;

HUNTINGTON*    MOSUNNY   68  67  96 CALM      30.13R
6HR MIN TEMP:  67; 6HR MAX TEMP:  73;

PERU/GRISSOM   MOSUNNY   68  68 100 S3        30.11R
6HR MIN TEMP:  67; 6HR MAX TEMP:  73; 6HR PCP:  0.49;

MARION*        CLOUDY    70  66  88 S5        30.13S

$$
INZ028>050-211300-
CENTRAL INDIANA

CITY           SKY/WX    TMP DP  RH WIND       PRES   REMARKS
LAFAYETTE      CLOUDY    69  69 100 SE3       30.10R
6HR MIN TEMP:  67; 6HR MAX TEMP:  74; 6HR PCP:  0.48;

KOKOMO*        MOSUNNY   68  67  96 S6        30.13R
6HR MIN TEMP:  67; 6HR MAX TEMP:  73; 6HR PCP:  0.86;

MUNCIE*        CLOUDY    75  67  76 S6        30.13R
6HR MIN TEMP:  73; 6HR MAX TEMP:  77;

INDIANAPOLIS   PTCLDY    72  68  87 SE5       30.12S
6HR MIN TEMP:  71; 6HR MAX TEMP:  77;


$$
MIZ043>046-050>051-056>058-064>065-071>073-077>080-211300-
SOUTHWEST LOWER MICHIGAN

CITY           SKY/WX    TMP DP  RH WIND       PRES   REMARKS
BATTLE CREEK   MOSUNNY   71  66  84 S5        30.12R
6HR MIN TEMP:  69; 6HR MAX TEMP:  72;

BENTON HARBOR  PTSUNNY   72  65  78 S3        30.06F
6HR MIN TEMP:  71; 6HR MAX TEMP:  76;

COLDWATER*     CLOUDY    71  67  88 SE3       30.12S
6HR MIN TEMP:  67; 6HR MAX TEMP:  71;

HILLSDALE*     CLOUDY    70  64  83 CALM      30.13S
HOLLAND        CLOUDY    70  65  84 CALM      30.08S
6HR MIN TEMP:  66; 6HR MAX TEMP:  71;

GRAND RAPIDS   CLOUDY    69  66  90 S6        30.09R
6HR MIN TEMP:  67; 6HR MAX TEMP:  70;

KALAMAZOO      MOSUNNY   72  64  76 SE3       30.10R
6HR MIN TEMP:  70; 6HR MAX TEMP:  73;

STURGIS*       MOSUNNY   70  67  88 CALM      30.10F
6HR MIN TEMP:  68; 6HR MAX TEMP:  71;

THREE RIVERS*  CLOUDY    72  67  83 CALM      30.10S
6HR MIN TEMP:  69; 6HR MAX TEMP:  73;


$$
OHZ001>008-015>018-024>025-211300-
NORTHWEST OHIO

CITY           SKY/WX    TMP DP  RH WIND       PRES   REMARKS
WAUSEON*       CLOUDY    68  68 100 CALM      30.12S FOG
DEFIANCE       CLOUDY    71  66  84 CALM      30.12R
6HR MIN TEMP:  67; 6HR MAX TEMP:  71; 6HR PCP: TRACE;

FINDLAY        PTSUNNY   70  65  84 S5        30.13R
6HR MIN TEMP:  67; 6HR MAX TEMP:  71;

TOLEDO EXPRESS CLOUDY    69  69 100 CALM      30.13R
6HR MIN TEMP:  66; 6HR MAX TEMP:  70;

TOLEDO METCALF CLOUDY    72  68  87 S3        30.14R
6HR MIN TEMP:  68; 6HR MAX TEMP:  72;

LIMA           MOSUNNY   70  67  90 CALM      30.13F
6HR MIN TEMP:  66; 6HR MAX TEMP:  71; 6HR PCP: TRACE;


$$
AND FOR LAKE MICHIGAN COASTAL AND OPEN LAKE BUOY OBSERVATIONS

STATION/POSITION TEMP    WIND        PRES    VSBY  WAVE
                 AIR SEA DIR/SP/G                  HT/PER
                 (F)     (DEG/KT/KT) (MB)    (MI)  (FT/S)
CALUMET HARBOR    72     180/  5/  8 1017.0S
MICHIGAN CITY     72     150/ 14/ 18   N/A
BURNS HARBOR      73     180/ 10/ 15 1017.9F
SAINT JOSEPH      73      CALM  /  4 1019.0
SOUTH LAKE BUOY   73 71  210/  6/  8 1017.6R         1/ 3
4 MI NW BRIDGMAN  74 74  200/  8/ 10 1017.5          1/ 3
MICHIGAN CITY     73 74  180/ 14/ 16   N/A           1/ 2

$$
&&




USA.gov is the U.S. government's official web portal to all federal, state and local government web resources and services.